RH
88 83 76 72 71 71 71 74 77 76 74 72 72 72 72 79 89 89 82 69 58 56 57 58 59 59 60 61 61 62 63 62 57 50 55 76 95 98 96 95 88 85 88 86 88 94 94 92 96 93 73 56 54 52 50 56 65 77 92 96 94 89 83 89 97 98 96 94 95 97 97 98 99 97
87 81 77 78 79 74 75 84 86 80 76 74 74 74 70 70 77 81 83 74 59 57 60 60 61 61 61 63 63 62 62 61 63 62 58 66 81 84 85 94 94 87 84 83 83 89 94 94 93 96 87 65 53 52 50 53 61 70 84 93 93 86 80 82 93 96 87 82 88 94 96 98 99 98
84 78 78 83 83 77 77 83 83 76 75 76 75 71 67 67 69 69 78 82 68 61 64 64 65 66 67 69 69 66 63 62 66 72 72 73 77 76 78 89 95 91 86 83 79 80 89 95 93 95 97 79 57 50 49 52 61 69 80 93 92 82 75 76 90 95 80 73 83 88 90 95 97 98
78 77 82 86 82 78 78 79 80 79 79 82 82 79 73 72 73 70 76 85 78 67 67 69 68 69 70 71 73 71 66 64 66 67 72 79 82 82 85 90 92 90 87 84 79 77 83 92 94 93 98 90 65 50 49 52 58 68 80 91 88 76 68 68 84 95 84 81 91 93 94 99 99 97
75 80 88 88 81 79 81 81 83 85 87 89 89 87 84 80 79 76 76 83 83 74 71 72 70 70 71 72 75 75 71 69 68 66 73 86 91 91 92 92 90 88 86 83 79 76 77 86 95 94 96 95 75 56 55 57 60 68 80 86 79 70 64 60 74 93 92 92 100 101 99 100 98 98
78 85 93 91 83 81 84 85 87 89 91 93 93 91 89 86 84 83 82 84 87 82 75 73 72 71 73 75 76 76 75 74 72 70 80 94 99 95 92 91 90 87 84 81 77 75 75 80 91 95 94 94 83 68 66 67 67 72 83 89 82 72 63 57 69 89 95 96 100 101 100 95 91 94
81 88 95 92 86 86 89 89 90 93 94 96 96 95 94 92 91 88 86 87 88 86 80 76 75 73 74 76 76 75 75 76 78 83 90 98 100 96 92 90 89 86 84 82 77 74 73 75 82 89 93 94 86 75 72 74 75 77 86 96 92 81 70 61 69 86 92 96 99 98 99 98 91 89
82 89 95 92 88 91 92 92 93 95 97 98 99 99 98 97 96 93 91 91 91 90 86 80 75 73 75 76 77 78 77 78 85 92 96 98 99 96 94 92 88 84 83 83 78 73 72 73 74 79 89 94 85 73 68 72 78 78 84 96 98 91 83 74 75 85 89 93 98 96 96 99 98 94
84 89 93 90 90 94 94 95 96 98 99 100 100 100 100 99 99 97 94 92 91 89 84 77 72 73 77 78 78 79 82 86 91 96 98 100 100 97 95 93 88 84 85 85 80 73 71 73 73 74 83 90 85 73 66 70 77 77 81 93 98 95 93 86 82 87 90 90 95 98 97 97 100 98
85 89 91 90 90 93 96 98 99 99 100 99 98 98 100 100 98 94 88 85 85 83 79 75 73 76 78 78 79 81 87 94 97 98 99 100 100 99 98 96 90 86 87 86 81 74 70 72 74 74 79 89 89 81 75 75 79 79 78 86 93 95 97 94 86 90 95 89 88 97 98 95 99 100
86 87 89 89 88 92 98 100 101 100 99 99 98 98 98 97 93 88 82 81 81 80 77 74 75 78 79 79 81 83 89 96 98 99 100 100 99 100 100 97 91 87 87 86 80 74 70 70 72 73 76 86 93 92 89 87 86 82 77 80 90 95 97 95 89 92 100 94 86 92 96 93 96 100
85 88 90 89 88 93 99 99 99 100 100 100 100 97 93 91 91 87 82 82 81 78 76 75 77 80 80 81 85 89 94 98 99 98 99 100 99 98 99 95 90 87 87 86 81 75 72 71 70 71 73 79 88 95 97 94 89 84 78 79 92 100 98 96 91 89 97 98 90 88 93 95 96 98
85 90 92 90 89 96 99 96 97 99 99 99 100 97 92 91 93 89 85 84 83 80 79 78 81 84 83 83 86 92 97 99 98 96 98 101 99 97 98 95 91 89 88 86 82 76 75 72 69 68 70 73 81 91 98 96 92 87 81 78 88 99 100 98 94 89 90 95 93 87 87 91 96 99
89 91 93 91 90 95 95 93 97 100 98 98 97 94 94 96 97 94 90 88 85 84 84 83 86 88 85 84 87 92 96 99 99 98 99 100 99 98 100 98 95 93 90 90 87 79 76 75 72 70 67 67 76 87 94 95 94 91 86 80 82 92 98 97 96 95 93 95 96 89 82 81 85 94
93 93 94 91 88 92 94 94 99 100 100 99 94 93 96 98 99 99 97 95 91 90 89 87 89 90 88 87 89 93 96 98 100 100 99 100 100 99 99 98 98 96 93 95 94 87 83 80 78 77 71 66 70 79 85 87 90 91 88 83 80 84 90 91 93 98 99 99 99 92 86 80 76 84
94 95 97 94 89 93 97 98 99 99 99 96 91 94 98 98 99 101 100 100 99 97 95 91 90 90 90 90 91 95 98 99 100 100 99 100 100 99 98 97 96 94 94 98 98 95 93 88 85 85 77 67 66 68 72 77 84 89 88 84 80 78 81 85 87 92 97 100 101 97 91 80 70 75
97 97 99 97 93 95 99 99 98 100 98 87 86 95 98 97 100 101 100 101 101 100 99 97 94 94 95 96 95 98 100 99 100 100 100 100 99 99 98 96 92 90 93 99 98 98 99 94 88 86 80 75 73 69 69 75 83 89 90 88 84 79 78 79 82 88 93 97 100 100 95 81 69 70
99 100 99 100 98 98 101 99 98 102 96 84 88 97 96 96 101 101 101 101 99 100 101 99 98 98 99 100 99 100 100 99 100 100 99 100 100 100 98 95 92 91 94 98 96 96 100 98 93 88 82 82 83 81 81 85 88 91 93 92 88 83 79 77 78 83 88 92 98 101 98 86 74 72
99 100 99 100 100 99 101 99 97 99 94 87 92 97 94 96 100 100 102 101 99 100 100 99 100 100 99 100 99 100 100 99 100 100 100 100 100 100 99 98 97 96 97 99 96 95 99 100 98 95 89 86 86 87 91 95 96 95 95 94 90 84 82 79 76 80 86 90 96 100 99 90 78 75
94 97 99 101 100 99 101 99 97 99 95 90 94 96 93 96 98 97 99 100 100 101 100 99 101 99 99 100 99 99 100 99 98 96 96 98 99 100 100 99 100 100 100 100 98 96 99 100 100 100 98 95 92 91 92 94 97 98 97 96 91 85 85 83 78 80 86 92 97 98 99 94 80 74
93 97 99 101 100 99 100 100 99 100 98 94 97 96 93 95 98 96 94 95 98 100 100 100 100 100 101 101 99 100 100 99 94 90 92 97 99 99 99 99 100 100 99 101 99 96 98 100 99 99 100 100 99 97 94 93 96 99 98 98 93 86 85 85 81 80 84 92 100 100 99 97 84 72
93 98 100 100 100 100 100 100 99 100 100 98 99 98 95 96 99 98 96 95 94 93 93 92 91 94 96 94 95 98 100 100 97 94 97 100 98 98 98 98 100 100 99 101 99 97 98 100 98 98 100 100 99 99 99 98 99 100 99 99 96 89 86 84 81 82 83 87 96 100 99 97 87 75
92 98 101 100 100 100 99 100 100 100 100 100 100 99 98 98 100 101 100 100 97 94 91 89 87 89 90 89 91 96 98 100 100 99 100 101 99 99 98 98 99 99 99 100 100 98 100 99 97 96 97 99 100 99 100 100 100 100 99 100 98 92 86 83 83 88 89 85 88 95 96 94 89 80
96 98 100 100 100 100 100 100 100 99 100 100 100 100 100 100 102 102 100 101 101 97 95 94 92 90 91 90 92 94 96 98 100 100 100 100 100 100 99 98 98 98 99 100 100 99 99 99 99 96 93 95 99 100 99 98 99 100 99 100 100 93 86 83 85 91 93 88 86 89 90 90 90 84
101 99 100 100 99 100 100 99 100 100 100 100 100 100 100 100 101 102 100 98 96 93 94 95 93 91 92 91 92 93 95 96 98 99 100 100 100 100 100 99 98 98 99 100 100 100 99 99 101 99 94 95 98 100 99 98 99 101 99 99 100 94 85 83 87 92 94 91 88 89 88 87 88 87
102 100 100 100 99 100 100 100 100 100 100 100 100 100 100 100 102 102 99 95 91 90 93 95 93 92 93 94 94 95 95 95 97 98 99 100 100 100 100 100 99 99 100 100 100 99 99 98 100 100 98 98 99 99 100 99 100 100 100 100 99 92 84 83 88 92 93 91 88 89 90 89 87 89
101 100 100 100 100 100 100 100 101 101 100 100 100 101 102 103 102 99 95 91 90 93 96 97 96 95 96 97 98 97 98 98 97 97 98 98 98 99 99 100 100 99 99 100 100 99 98 99 100 100 99 98 98 99 99 99 100 100 100 100 99 94 88 85 87 89 91 91 88 89 94 96 93 93
98 101 100 99 101 101 100 102 102 101 101 101 101 102 103 103 102 99 95 93 93 97 99 99 99 98 96 97 99 98 99 100 96 93 92 93 94 95 96 98 99 99 99 100 100 99 99 99 100 100 100 98 97 97 98 99 100 100 99 100 100 99 96 92 88 88 90 92 92 91 94 99 98 97
90 98 102 101 102 102 101 101 98 96 99 101 103 103 100 99 100 100 99 97 96 99 101 100 102 99 92 93 99 98 96 96 93 89 88 88 85 85 88 92 93 95 97 99 99 100 100 100 100 100 100 99 98 97 98 99 100 100 100 100 100 100 100 98 95 93 91 91 94 94 95 97 97 98
75 85 96 99 98 99 101 101 97 95 97 98 98 98 95 96 101 102 102 102 100 101 102 100 100 97 90 91 95 93 90 92 93 93 94 93 89 86 87 87 87 89 93 96 98 100 99 100 100 99 99 100 99 99 99 98 99 100 100 100 100 100 100 100 99 99 96 93 94 96 97 96 96 96
69 76 88 93 94 94 96 96 93 91 91 90 92 96 95 97 102 104 103 103 102 102 101 99 97 94 89 88 89 87 87 89 92 96 97 97 96 93 90 88 88 89 89 89 93 97 98 100 100 99 99 100 99 100 99 97 98 100 100 100 100 99 100 100 100 100 100 98 96 97 98 98 97 96
72 78 83 85 86 86 88 88 86 86 87 87 91 98 100 100 101 102 102 101 101 102 101 99 96 94 90 87 86 85 83 83 88 95 96 95 97 96 92 91 94 94 91 87 87 90 93 98 100 100 99 99 100 100 100 98 99 100 99 100 100 99 99 100 100 99 100 100 99 99 99 99 99 99
73 79 83 85 87 89 93 95 94 94 95 93 93 97 101 102 101 101 101 100 100 101 102 100 99 98 94 90 87 86 83 80 84 92 94 92 94 96 94 95 98 99 97 94 91 89 88 91 97 101 100 99 99 100 99 99 100 100 99 100 100 100 100 100 100 99 98 99 100 100 100 100 98 98
76 84 91 95 98 100 101 102 101 101 101 101 99 99 101 102 101 101 101 101 101 101 102 102 102 101 99 96 92 90 88 84 82 86 88 87 90 96 98 97 98 99 99 99 98 95 91 88 89 94 98 98 99 100 99 99 100 100 100 100 99 99 100 100 99 99 98 98 99 99 100 100 99 98
85 94 100 101 102 103 103 103 103 102 101 102 102 102 102 103 102 101 101 101 101 101 100 101 102 102 101 100 97 94 93 90 85 85 84 82 85 95 98 96 97 98 98 99 101 99 98 95 90 89 91 93 96 99 99 99 100 100 99 100 100 98 99 100 100 100 100 98 98 99 100 100 100 100
94 102 105 104 104 104 104 103 104 103 101 101 103 104 103 103 102 101 101 102 102 101 101 100 101 101 101 101 100 97 95 94 91 90 89 86 88 96 97 94 95 96 95 97 101 101 100 100 97 95 92 90 92 96 95 94 100 101 98 99 100 99 99 100 100 100 100 99 98 98 99 99 100 100
98 103 105 106 105 104 105 105 105 104 103 103 104 104 104 103 102 102 103 103 102 103 102 100 100 100 100 100 101 99 98 97 96 96 95 92 92 96 96 94 94 94 91 93 98 100 100 100 99 98 95 92 95 96 89 86 93 98 98 98 100 100 99 100 100 99 100 100 99 98 97 97 99 100
100 104 105 106 106 105 106 108 107 105 104 103 103 104 105 104 102 102 104 103 102 103 104 102 101 101 100 100 101 100 100 99 99 100 100 98 97 98 97 96 96 93 89 88 91 94 97 99 100 100 98 96 98 98 92 88 89 90 93 98 101 100 99 100 100 100 100 100 100 100 98 96 96 97
100 104 106 106 106 106 106 108 108 107 106 104 102 103 105 106 103 102 103 103 102 103 104 103 103 102 101 100 100 100 100 101 102 104 104 102 101 101 99 97 98 96 91 88 87 87 90 95 100 102 101 100 99 98 98 98 93 87 90 98 100 99 100 100 99 100 100 99 99 100 100 99 97 96
98 101 104 105 105 104 104 105 106 107 107 107 105 104 106 107 105 103 104 103 103 103 104 104 104 102 101 101 101 100 100 101 102 104 105 103 101 102 101 100 99 97 94 92 89 86 86 90 95 100 101 102 101 99 99 100 96 92 94 98 99 99 100 100 99 99 99 99 98 99 99 99 99 99
95 97 101 102 102 101 101 101 103 105 106 107 107 106 105 106 105 105 104 103 103 103 103 104 104 103 101 101 102 100 100 100 100 101 104 104 102 101 101 101 100 97 95 96 92 83 78 81 89 96 99 101 101 100 98 97 96 95 96 99 100 100 100 100 99 98 98 98 98 99 100 100 99 100
94 95 96 96 96 96 96 97 100 104 105 104 106 106 105 104 103 103 102 100 101 103 103 103 104 104 101 101 103 101 100 100 100 100 103 104 103 101 101 102 103 100 98 99 95 83 72 74 82 90 96 99 99 98 97 96 96 96 97 98 100 100 99 100 100 99 99 98 97 97 98 98 98 99
91 89 89 88 86 86 88 91 96 102 104 104 104 105 103 101 101 101 101 100 100 101 102 102 103 104 102 102 104 103 101 101 102 101 101 102 103 102 102 103 103 101 97 95 91 80 70 68 76 85 93 97 99 99 97 95 96 98 98 99 100 100 100 100 100 100 100 99 98 96 95 96 96 95
89 85 81 79 77 78 81 85 91 98 103 103 104 104 103 102 101 101 102 102 101 100 101 102 103 103 103 102 103 103 102 104 105 104 103 103 104 103 103 104 102 98 96 94 89 80 70 64 69 83 94 97 98 99 98 97 98 98 97 97 99 100 100 100 100 100 100 100 99 98 97 96 95 92
87 84 78 72 71 72 76 79 87 96 100 101 102 103 104 103 103 103 102 102 101 101 101 101 102 102 102 102 102 102 102 103 104 105 105 106 107 105 105 106 104 99 96 96 93 88 79 69 66 76 88 93 95 98 99 99 99 97 95 96 98 99 100 100 99 100 100 99 100 100 99 97 96 95
Wind_Speed
20 21 25 26 24 23 23 24 22 21 24 25 26 26 20 14 10 9 11 10 10 16 22 22 23 24 26 29 30 30 30 32 33 33 33 30 27 26 26 27 29 29 29 28 28 28 28 29 30 30 32 34 35 35 34 36 36 35 34 32 33 34 32 33 34 38 44 45 51 63 72 72 68 65
21 24 27 25 22 23 23 20 19 21 24 25 24 23 22 20 14 10 11 12 11 15 22 23 25 29 32 33 34 35 35 35 34 33 33 32 30 30 28 27 29 30 28 28 27 28 28 29 29 30 31 32 34 34 32 33 34 36 36 34 35 37 35 33 31 35 43 46 53 65 73 73 68 65
24 26 26 22 21 23 23 20 20 22 22 22 22 21 22 23 21 16 12 11 14 18 22 25 30 34 35 34 34 35 35 34 32 32 32 33 32 31 30 27 28 30 28 27 26 27 27 28 29 30 30 31 33 33 32 31 32 35 34 32 34 38 38 33 27 29 37 45 57 76 81 77 71 65
26 26 22 20 22 24 22 20 20 20 20 21 21 22 22 22 23 22 15 11 15 22 26 29 33 34 33 33 32 32 34 33 32 32 32 33 32 31 29 27 26 28 28 26 26 26 26 27 28 29 29 30 32 32 31 30 30 32 32 31 35 39 39 34 26 23 29 34 47 77 82 75 72 63
27 25 19 18 23 23 20 21 21 21 21 21 21 20 21 21 22 22 18 12 12 21 28 29 31 33 31 31 30 29 31 32 33 33 32 31 30 29 28 26 25 26 27 26 25 25 26 27 28 29 29 29 30 31 30 29 29 30 31 33 36 39 39 35 26 21 23 22 30 57 64 64 64 59
26 22 17 19 23 21 21 22 22 21 21 22 22 21 21 22 23 22 21 16 11 15 25 28 29 31 28 27 29 28 29 31 33 33 32 29 28 28 27 25 24 24 25 24 24 24 25 26 27 29 30 29 29 28 28 28 27 27 28 29 32 35 36 34 28 19 19 22 24 38 49 56 58 56
25 20 18 22 24 21 22 23 22 23 23 22 22 22 23 23 24 24 24 20 13 12 20 26 27 27 26 27 30 31 30 31 31 31 31 29 27 27 27 25 24 23 23 23 22 23 24 26 27 28 30 30 29 27 26 26 26 25 26 26 27 30 30 30 28 20 15 20 28 34 42 50 55 56
23 21 20 24 25 23 23 23 23 23 24 24 24 23 24 24 24 25 24 23 20 16 17 22 26 27 27 29 33 33 31 30 30 30 30 29 28 28 27 24 23 23 23 23 21 21 23 24 27 28 29 30 30 28 26 26 25 23 24 25 26 27 27 28 28 22 15 18 27 36 39 43 49 54
23 22 22 25 26 25 24 24 25 27 29 29 26 24 25 25 24 24 23 23 24 21 18 21 26 28 27 30 33 32 29 28 28 28 29 29 28 26 25 23 22 23 24 22 20 20 21 23 26 28 29 30 30 29 27 25 25 23 23 25 26 26 25 26 27 24 19 18 22 33 39 41 46 50
22 22 23 25 26 26 26 27 29 31 31 29 27 28 27 23 22 23 24 23 23 22 22 23 25 25 25 27 30 30 26 25 25 24 23 25 25 23 22 22 22 22 23 22 19 19 20 22 25 27 29 29 29 28 27 25 24 23 23 23 25 26 25 24 25 24 23 21 20 25 34 38 41 47
22 22 23 25 26 27 28 29 30 29 27 26 28 28 24 22 22 23 24 22 20 20 21 21 21 23 23 23 26 30 28 25 26 23 17 14 17 20 20 21 21 20 21 20 18 18 18 20 23 27 28 28 28 28 27 25 23 23 23 21 22 25 25 25 25 24 24 23 22 23 27 33 35 40
21 21 22 23 26 28 28 29 30 29 28 28 26 22 22 24 23 22 22 20 19 19 18 18 19 20 21 22 23 27 24 19 19 21 16 10 12 16 18 20 20 18 19 19 17 17 17 18 21 24 28 29 29 28 27 25 23 22 22 21 21 22 23 24 26 27 25 23 23 23 24 29 35 37
22 20 20 23 27 28 29 31 32 32 32 30 24 22 25 25 21 19 20 18 17 17 15 14 15 14 15 17 17 16 14 10 10 15 15 12 13 14 14 17 19 18 17 17 17 17 18 19 19 22 27 30 29 28 27 25 23 22 21 22 22 22 22 22 24 27 27 24 24 23 21 24 31 37
22 19 19 23 27 29 32 33 33 34 33 27 25 26 25 22 19 20 20 17 16 15 11 10 11 10 9 14 16 16 15 15 13 11 12 10 9 9 8 10 15 18 17 16 17 18 18 19 19 21 25 29 29 29 27 25 24 23 21 22 23 23 23 22 22 24 27 26 25 25 22 20 21 28
22 20 20 24 29 33 34 34 36 37 30 24 26 27 23 21 20 20 19 17 16 14 12 12 12 9 9 15 19 18 18 20 18 12 11 10 6 5 4 4 7 14 19 17 15 16 17 18 19 21 23 26 28 29 28 26 24 23 22 22 23 23 23 22 22 23 25 26 26 25 24 22 17 18
22 22 22 26 32 35 34 35 39 35 25 24 28 25 22 22 21 20 19 17 16 16 15 13 13 12 13 16 20 19 20 20 20 16 11 12 9 5 5 3 3 9 18 18 12 11 15 17 18 20 21 23 26 27 27 26 25 24 23 23 23 22 21 22 23 25 25 25 25 24 25 26 22 16
21 22 23 27 33 36 36 38 39 29 22 28 29 22 22 24 22 21 21 17 17 19 18 14 15 18 18 18 21 23 24 22 18 15 10 12 12 8 6 6 6 8 15 18 12 8 13 16 17 19 20 21 22 24 24 25 25 25 24 24 23 23 21 20 22 25 26 26 25 24 24 29 28 20
21 21 24 27 32 37 38 38 36 27 25 31 28 21 23 24 22 23 23 21 21 20 17 16 19 22 21 20 23 26 27 22 17 14 10 10 12 10 8 8 8 7 14 18 11 5 10 15 16 17 18 19 21 22 22 23 24 24 24 24 24 23 21 20 21 24 25 25 25 24 24 30 32 25
21 22 25 26 30 36 37 35 34 30 28 30 26 21 23 24 23 24 24 24 24 22 19 18 19 22 22 21 23 24 24 20 14 12 9 9 12 11 8 6 6 8 14 17 10 2 7 14 14 13 15 17 19 20 21 22 23 24 24 25 25 24 23 21 21 23 23 23 24 23 24 29 31 25
24 25 25 25 30 35 34 32 34 31 28 28 26 22 24 25 24 25 27 25 23 22 21 20 18 20 20 20 19 19 22 21 10 1 4 3 2 6 6 4 4 8 13 15 8 2 5 12 12 10 12 14 15 17 19 20 21 22 24 25 25 25 24 22 22 22 22 21 21 22 24 28 30 24
27 26 24 24 30 33 32 32 34 32 27 26 25 22 24 25 24 28 33 31 27 25 24 23 22 23 24 26 25 23 26 28 21 14 10 11 9 1 4 2 2 6 9 10 8 3 5 11 12 10 10 13 13 14 16 17 18 20 22 24 25 25 25 24 22 21 22 22 20 21 23 26 30 27
28 27 24 24 28 32 32 32 33 32 28 25 24 23 24 24 23 28 35 37 35 34 31 29 29 31 34 35 36 34 34 34 33 25 16 14 12 3 2 2 2 4 5 5 6 4 6 11 13 10 8 8 9 12 14 15 16 18 20 23 25 26 25 24 22 18 20 23 23 21 21 21 26 31
29 29 26 26 28 31 32 32 32 32 29 25 24 24 23 22 22 27 32 32 33 36 37 35 36 38 39 40 40 39 37 36 37 32 24 20 17 8 3 3 2 3 2 1 3 5 7 12 14 11 6 3 4 10 14 15 16 18 20 22 25 27 25 24 23 17 15 19 22 22 23 21 22 28
28 30 28 28 29 31 32 31 31 31 30 26 26 26 25 24 23 26 29 27 28 32 35 38 42 43 41 42 43 42 40 38 38 34 28 25 21 15 10 8 4 2 4 4 1 5 7 11 13 11 5 2 3 6 11 14 16 18 20 22 26 28 25 23 23 19 14 14 17 19 23 24 22 24
24 28 29 28 29 30 30 30 30 30 29 28 27 28 27 26 25 27 29 28 30 35 37 39 44 47 45 45 46 45 43 40 37 35 31 28 25 20 15 11 6 4 8 10 3 6 7 9 11 9 4 3 5 6 6 10 14 17 19 22 26 29 27 24 23 21 16 14 14 15 18 22 23 23
22 25 27 26 27 28 28 28 29 29 29 29 29 30 29 27 26 28 29 30 34 39 40 38 41 47 48 46 46 46 44 41 38 35 32 29 27 23 19 15 10 7 12 15 9 7 7 6 7 7 4 3 5 6 5 5 8 14 16 20 25 29 28 25 23 22 20 17 16 14 13 16 19 20
21 23 24 23 25 25 25 26 27 28 28 29 29 31 31 29 29 32 34 36 36 35 34 32 35 41 43 41 42 43 42 39 38 34 31 30 28 25 23 22 20 17 18 21 18 12 9 8 6 5 5 4 5 5 3 3 6 11 14 16 22 27 27 25 24 23 21 20 19 16 12 12 14 16
20 20 21 21 22 22 22 24 26 26 28 29 29 31 32 32 33 36 37 38 36 31 29 29 29 32 36 36 36 37 37 37 37 35 31 30 27 25 24 25 27 29 27 25 24 20 15 12 10 7 7 7 6 4 2 3 7 12 13 13 16 22 25 25 24 23 21 20 21 20 16 13 13 15
18 16 17 18 19 20 21 24 28 30 30 30 29 31 35 35 36 36 35 35 35 30 26 24 22 27 34 34 30 31 36 40 41 38 34 31 29 28 26 26 29 32 32 30 26 23 21 17 13 11 10 8 6 6 5 6 8 12 14 13 12 16 21 23 23 23 23 21 21 22 22 19 16 15
17 16 18 18 20 22 22 25 28 30 30 31 32 35 38 38 36 34 33 32 31 28 26 24 23 26 31 30 28 30 38 44 45 41 36 33 32 30 27 28 31 32 32 32 30 26 23 20 15 14 13 11 10 9 8 8 8 11 14 15 13 11 15 21 22 21 23 24 22 21 22 22 21 18
19 20 21 20 22 24 24 26 28 30 31 34 36 37 38 37 34 32 30 29 28 27 27 26 26 27 28 30 31 33 37 42 44 40 36 32 30 30 30 30 31 32 32 32 31 27 25 21 16 14 13 11 11 10 8 10 10 10 12 16 14 10 12 19 21 20 22 23 23 23 22 20 22 23
20 21 23 25 27 29 30 31 33 35 35 36 36 35 35 35 34 31 31 31 31 30 29 28 29 30 31 33 34 33 35 41 42 38 36 32 28 29 30 24 21 26 31 34 34 31 26 22 17 13 12 11 10 9 10 10 10 10 11 12 13 12 14 19 20 20 21 21 20 22 23 22 20 22
21 24 27 30 32 33 33 33 34 35 35 35 36 35 35 35 35 34 34 35 33 32 31 30 31 32 32 33 34 33 34 39 39 35 34 33 30 30 28 19 15 19 22 27 34 36 32 25 17 11 10 11 11 10 10 8 7 8 9 10 11 12 14 17 19 21 21 20 19 19 20 22 22 21
24 27 28 29 29 29 29 29 30 31 31 32 33 34 34 35 35 35 34 34 32 31 31 30 30 32 32 32 34 33 32 34 36 34 33 35 35 30 22 16 16 19 18 19 28 36 36 31 24 15 10 11 13 13 13 9 7 8 9 9 9 10 11 13 16 19 21 21 20 18 16 18 22 23
25 26 25 25 26 26 26 26 26 27 28 29 30 31 32 33 33 34 33 34 33 31 31 31 31 32 32 31 31 32 30 30 32 33 34 37 37 28 19 15 16 19 20 19 22 29 31 31 29 21 11 8 9 11 14 14 9 6 6 7 8 8 9 11 14 16 18 19 20 18 14 13 17 21
25 23 22 22 23 24 24 24 25 26 26 27 27 28 29 30 32 32 31 31 32 31 31 32 32 32 32 31 30 31 30 30 31 31 32 35 33 24 18 18 17 18 21 20 20 23 24 24 24 17 7 5 6 4 8 14 13 10 8 5 5 7 8 9 12 13 13 15 19 17 13 13 16 19
22 21 21 21 21 22 22 23 24 25 25 26 27 26 27 28 29 30 29 30 32 32 31 31 31 31 32 31 30 31 31 30 29 29 29 33 32 25 20 19 18 20 23 22 20 21 21 20 21 15 6 5 6 3 6 12 12 12 14 12 6 3 8 9 10 11 11 11 13 14 13 15 18 20
20 20 20 20 20 21 21 22 23 24 25 26 27 27 27 28 28 29 30 31 32 32 32 32 31 31 32 31 30 30 30 29 29 29 28 30 29 24 20 18 16 19 23 22 21 23 21 18 18 16 9 5 4 3 6 9 10 10 12 13 11 4 5 9 9 9 9 9 10 10 10 13 17 19
18 17 18 18 18 19 20 21 22 23 23 25 26 26 27 28 28 29 30 31 31 31 31 31 31 31 31 31 29 27 27 28 28 27 27 27 25 23 22 20 17 18 20 19 22 27 27 23 20 18 12 7 6 8 8 8 13 16 13 8 5 5 4 7 8 10 10 9 9 9 9 10 12 14
15 15 15 16 16 17 18 19 20 21 22 23 23 24 24 26 26 27 28 28 29 29 29 30 30 31 31 31 30 28 27 27 26 25 25 25 24 23 23 21 19 19 17 14 17 23 27 27 27 24 19 16 14 15 14 14 17 19 16 8 1 3 3 5 6 9 11 12 12 11 10 9 9 11
14 13 13 14 14 15 16 17 18 19 20 21 22 23 23 24 24 24 24 26 27 28 29 29 30 30 30 30 30 28 26 26 27 26 26 26 24 24 24 22 21 22 18 12 14 20 25 28 28 23 18 17 15 10 8 7 7 12 16 13 4 2 2 3 5 6 8 13 16 13 9 8 10 10
12 12 12 12 13 14 15 16 17 18 19 20 21 22 23 23 23 23 24 27 27 27 28 29 29 29 29 29 29 27 25 25 26 26 26 26 26 26 26 24 22 22 19 14 16 23 27 29 29 25 20 19 16 8 3 3 5 8 14 16 9 1 1 1 2 3 4 10 15 12 8 7 7 6
10 10 11 11 11 12 13 14 15 17 18 19 20 21 22 23 24 24 25 27 27 27 28 28 28 29 28 28 28 27 25 25 26 26 25 25 25 24 25 24 23 22 21 20 22 27 29 29 30 28 23 20 17 10 5 6 8 9 13 17 13 5 1 1 1 1 3 8 11 8 6 5 3 4
8 9 9 10 10 11 12 13 14 15 17 18 19 20 21 21 22 23 23 24 25 25 26 26 27 28 28 27 28 27 26 25 25 25 24 24 23 22 23 24 24 24 25 25 27 30 31 31 30 27 23 19 17 13 9 9 10 11 13 16 15 11 5 1 1 2 4 7 7 5 5 6 4 3
7 8 8 9 9 10 11 12 13 14 16 17 19 19 20 21 21 22 22 22 23 24 24 25 26 26 26 26 27 26 26 26 26 26 25 24 24 23 23 24 24 25 26 27 27 28 31 32 30 28 23 19 16 15 14 12 11 12 13 14 15 14 10 5 3 3 4 5 5 4 6 8 10 9
Wind_Direction
311 313 313 309 305 306 307 301 296 294 297 298 293 287 288 295 301 302 300 297 296 299 298 295 295 297 298 299 299 297 295 294 294 294 292 289 287 286 280 271 265 259 252 250 246 242 242 241 240 240 238 234 232 235 239 240 243 246 247 249 248 250 256 254 252 247 241 241 236 223 215 210 203 197
316 313 310 306 305 311 312 309 310 308 302 296 289 284 288 293 293 294 296 291 287 294 295 291 293 297 298 297 296 294 291 291 293 293 290 286 282 281 282 274 264 260 255 250 246 242 240 239 238 237 236 233 230 232 237 238 243 245 247 251 251 252 255 257 262 255 245 248 241 222 212 208 201 196
318 313 310 309 313 316 313 310 311 308 301 298 297 294 293 292 288 286 287 284 285 290 293 293 293 294 296 296 295 291 289 288 289 291 288 284 281 279 279 275 264 258 254 250 247 244 240 237 237 236 234 232 229 230 235 237 242 245 247 252 253 254 255 256 266 258 251 260 242 216 207 202 196 194
319 313 311 315 320 317 311 308 307 305 303 302 301 298 294 291 288 286 284 284 290 290 290 291 291 292 293 294 292 289 288 287 287 288 285 281 280 278 276 274 265 256 251 248 245 244 241 237 235 234 233 231 228 228 233 237 242 243 245 250 252 254 256 255 264 259 256 262 225 202 196 192 188 189
320 314 310 319 321 315 310 308 304 302 301 298 295 294 292 291 289 287 285 284 289 289 287 286 288 291 292 290 289 288 287 286 287 288 284 278 275 272 271 272 266 256 249 246 243 241 240 236 233 232 232 231 227 227 231 236 242 243 245 249 250 254 256 254 258 258 253 248 196 180 180 179 180 185
321 315 313 321 321 314 310 308 304 302 298 293 291 289 289 289 288 285 281 278 283 288 287 288 290 292 290 287 287 287 284 284 285 285 281 276 270 267 267 267 264 257 250 246 242 239 238 235 232 230 230 230 227 225 229 233 240 242 244 248 249 250 254 251 250 253 249 238 200 174 173 177 181 186
322 317 315 319 320 316 311 308 306 302 297 292 288 286 285 285 284 282 277 275 277 281 285 288 291 292 291 287 286 285 280 279 279 278 276 272 266 265 265 261 260 261 255 248 242 238 237 234 230 228 228 230 228 226 228 231 236 240 240 244 246 247 249 245 241 243 246 237 215 191 180 180 184 188
323 318 317 319 319 317 313 310 307 302 296 292 287 284 285 284 281 280 277 273 273 274 282 289 291 292 291 287 284 283 280 277 274 272 272 269 264 263 263 257 255 259 259 252 243 237 236 232 229 225 226 229 229 228 229 231 234 237 237 238 240 243 244 239 233 233 239 236 216 201 191 186 186 187
324 320 318 320 319 317 313 309 306 303 300 298 294 289 286 283 280 281 280 279 278 278 284 291 292 290 287 284 283 281 276 274 274 272 267 263 261 260 259 254 252 254 256 252 242 236 235 231 227 224 224 227 230 230 230 232 234 235 236 236 236 239 241 235 229 227 232 236 219 202 196 193 192 191
326 322 320 320 319 317 313 308 306 306 305 303 300 294 289 287 290 293 292 289 286 284 286 290 290 288 284 283 283 281 272 264 266 267 261 257 255 253 251 249 248 250 251 247 239 235 232 228 225 223 223 226 229 231 232 233 235 235 235 236 236 236 237 232 225 223 227 233 228 210 200 198 197 196
327 324 322 321 321 319 314 311 309 308 307 302 298 298 301 305 304 301 296 293 291 291 291 290 288 288 288 284 282 282 274 260 255 253 250 251 249 244 242 243 243 245 246 243 238 234 232 227 223 221 221 224 228 231 232 233 234 234 233 236 237 237 237 231 224 220 222 224 225 219 208 204 204 203
329 326 323 322 324 323 320 318 316 314 312 308 306 311 318 314 305 299 300 300 301 299 294 290 289 291 293 288 285 284 271 251 244 242 235 237 239 235 235 238 240 241 241 239 235 232 231 227 222 220 220 222 225 228 230 231 232 233 233 233 234 236 236 232 224 220 219 219 220 221 215 209 209 210
331 328 324 325 327 324 324 325 322 320 319 317 319 326 321 312 306 306 308 308 307 301 294 293 294 296 295 291 295 296 279 259 253 240 229 229 231 228 232 236 237 237 236 235 232 229 227 223 218 216 218 220 222 224 227 228 228 231 232 229 230 234 234 231 226 221 221 222 220 216 213 212 211 212
332 329 325 326 327 328 331 330 324 321 321 321 326 327 319 315 317 316 313 312 311 306 298 299 303 300 296 296 302 310 314 317 306 260 224 217 218 212 223 239 236 231 227 226 228 228 225 221 217 215 216 217 218 220 222 224 225 227 228 227 227 231 233 231 226 220 219 222 223 217 210 211 217 216
330 328 325 328 332 335 335 331 322 319 319 326 332 328 323 324 323 321 320 319 317 311 302 302 305 300 297 306 310 314 322 325 318 288 233 206 194 186 201 232 231 224 218 214 219 224 219 215 213 213 214 214 215 217 218 221 223 224 225 225 226 229 233 231 225 220 215 214 217 219 215 210 218 227
330 328 325 328 335 337 333 327 322 319 324 339 338 331 329 329 327 327 329 328 324 315 305 304 307 304 303 310 313 317 321 320 313 299 255 209 199 200 202 203 196 209 208 203 204 213 208 204 206 208 210 211 213 216 218 219 221 222 223 224 224 226 230 229 225 222 219 213 209 212 215 211 214 232
330 329 326 327 334 337 335 330 326 326 340 349 342 334 333 332 331 332 333 336 331 317 309 309 308 308 311 313 312 316 321 317 303 292 259 210 205 208 208 212 204 195 197 193 189 195 196 193 197 204 209 210 212 215 217 218 220 221 221 222 222 221 223 226 226 224 222 220 212 209 216 216 214 223
330 328 329 328 331 334 335 333 333 339 353 352 344 336 335 333 334 336 339 343 338 325 320 319 313 313 315 315 313 317 321 315 295 283 267 223 210 211 218 220 212 202 197 191 183 181 191 188 190 199 206 209 211 215 216 217 218 219 219 220 220 219 218 221 227 226 223 222 218 212 216 218 214 215
334 333 336 332 329 332 335 337 342 350 357 353 344 338 338 337 336 338 342 343 336 329 329 326 320 320 321 320 319 324 333 333 305 275 260 229 212 209 210 207 200 197 195 192 187 179 184 182 181 190 199 203 208 214 215 215 217 218 218 219 220 218 217 219 223 223 221 221 219 214 214 213 209 209
343 345 342 333 331 335 338 342 347 354 0 356 346 341 343 342 340 341 347 348 340 334 337 336 332 331 332 337 337 339 354 3 1 142 115 75 206 199 183 169 178 181 185 192 199 187 172 178 174 172 185 195 202 210 213 213 214 216 217 218 220 218 217 219 220 219 215 213 213 212 212 210 204 201
349 350 342 334 337 341 343 347 350 356 4 358 348 346 347 346 344 345 351 357 355 350 353 358 2 2 0 5 11 14 17 24 42 69 64 22 358 273 174 137 155 170 175 188 197 183 168 177 168 153 166 184 194 204 210 210 210 212 214 216 218 217 217 217 217 215 211 206 202 199 201 204 202 197
350 350 343 340 344 345 347 351 352 359 7 1 352 352 351 350 351 349 352 358 360 2 10 16 18 19 19 20 25 26 25 31 42 49 37 13 7 11 161 75 112 146 141 163 187 177 162 168 161 141 141 171 191 201 206 207 206 206 209 214 214 212 214 215 212 210 210 209 207 201 193 194 198 197
352 355 350 347 348 349 351 354 355 1 8 5 358 357 355 356 357 352 351 354 355 0 11 17 18 20 22 23 24 24 25 31 36 38 33 27 27 25 352 10 88 133 83 85 172 167 160 165 163 150 134 139 190 199 203 205 205 202 203 209 209 207 209 212 208 205 208 211 214 213 205 196 192 193
350 355 353 349 349 351 353 355 357 3 8 8 5 3 2 2 358 352 354 357 356 360 9 15 16 17 19 20 21 22 25 27 29 31 33 30 28 24 10 8 31 63 27 19 115 166 164 168 169 165 158 140 140 175 195 200 201 200 200 203 203 203 206 210 206 202 205 209 210 213 213 207 198 194
348 352 351 347 347 351 354 357 359 3 7 10 11 9 7 4 359 358 3 4 4 10 16 17 16 16 16 17 18 19 21 22 23 27 32 30 27 25 16 3 355 14 26 26 50 166 159 162 171 170 151 126 129 136 162 183 191 196 198 200 201 200 202 205 203 200 202 204 199 200 209 209 204 200
347 350 350 344 345 351 355 358 1 4 7 11 12 10 8 6 4 6 10 10 11 16 20 17 15 15 14 11 12 14 16 18 20 23 28 32 33 34 33 23 11 7 18 28 54 136 142 133 157 164 140 111 130 134 129 148 180 190 193 197 199 198 198 198 197 196 200 204 199 193 196 203 204 204
346 351 350 343 345 352 357 0 3 6 9 11 12 11 9 9 9 12 15 15 13 14 15 14 12 12 9 6 6 8 9 12 16 21 26 31 35 42 45 40 38 38 35 38 52 79 102 97 99 127 145 142 135 134 119 114 157 174 182 188 193 195 196 196 194 193 196 201 201 196 187 188 192 194
348 350 349 345 349 355 358 3 8 11 12 12 11 12 13 14 15 16 16 14 12 10 11 10 6 3 3 2 3 4 5 10 17 24 29 31 35 43 46 42 42 44 44 44 48 53 61 68 68 83 123 143 144 137 126 121 142 157 162 168 179 188 193 197 196 193 191 194 198 197 191 184 183 181
354 357 354 353 360 4 4 9 16 20 18 15 12 14 18 21 20 18 15 14 13 12 9 4 355 353 359 2 2 5 12 19 24 27 29 31 36 42 44 42 43 43 42 43 45 47 48 49 53 67 89 110 120 121 123 118 132 152 156 155 164 178 186 192 195 193 190 189 192 196 196 193 188 181
8 18 15 11 16 19 18 18 20 21 20 18 18 20 22 23 22 19 16 15 14 10 4 358 353 352 356 2 7 13 20 25 26 24 21 22 26 30 34 36 35 35 36 38 40 43 43 43 47 57 69 82 90 100 121 129 128 145 156 155 153 164 181 187 190 189 188 188 188 191 196 199 198 194
16 27 25 24 26 26 26 25 23 23 22 22 22 22 21 22 21 19 18 17 16 12 5 359 357 357 2 10 14 17 21 24 25 23 22 19 17 21 29 32 24 20 25 33 38 40 39 39 42 48 56 69 73 79 111 135 135 135 147 154 157 162 176 183 186 188 186 184 183 184 189 197 200 201
21 29 28 29 29 28 27 25 23 23 23 22 22 20 18 19 20 19 18 18 17 14 10 6 4 5 9 15 16 17 20 21 22 22 23 21 18 22 33 36 17 6 13 23 29 33 35 37 40 42 48 60 67 73 91 111 123 129 136 146 153 162 171 176 182 187 186 181 176 177 184 191 198 201
26 32 30 29 27 25 22 20 18 18 17 17 19 19 17 17 17 17 18 17 14 12 11 10 9 8 11 14 16 17 17 18 19 21 21 22 23 26 33 35 18 5 5 7 13 21 26 31 40 49 52 57 62 65 70 84 105 122 134 138 137 148 167 177 180 183 184 179 171 167 176 186 194 201
32 32 28 26 24 21 19 17 14 12 11 11 12 14 15 16 15 15 15 14 12 12 13 13 12 12 13 14 15 16 14 12 15 19 21 24 26 25 24 22 15 10 1 354 3 13 16 21 31 45 54 60 64 61 57 64 92 113 128 138 136 143 163 176 178 179 180 180 174 165 164 175 186 196
35 31 26 22 20 19 19 16 12 10 10 10 8 9 12 14 14 14 12 11 10 12 14 15 16 16 16 14 14 14 13 11 14 17 19 23 24 22 19 19 12 5 2 358 360 5 9 12 18 24 31 45 60 60 48 46 58 85 107 127 136 143 160 174 176 175 177 179 176 167 160 166 174 184
37 31 26 20 17 17 16 14 12 11 10 9 9 8 9 10 12 13 10 9 11 14 14 15 16 16 16 15 15 14 13 13 14 15 16 17 17 15 17 19 12 3 6 6 360 1 5 9 12 14 14 19 35 51 36 34 45 53 48 63 123 143 156 174 179 176 174 176 175 169 164 170 175 180
35 29 26 20 16 15 14 11 11 12 11 10 10 11 9 8 9 11 11 12 15 17 17 17 17 17 16 16 16 16 16 16 15 15 14 13 13 13 13 11 4 2 6 7 5 6 9 13 15 17 12 8 19 3 340 1 26 46 38 22 17 126 153 161 171 178 181 180 179 176 171 171 177 183
34 27 23 18 14 13 12 12 11 11 12 12 11 11 10 10 12 13 14 16 17 16 17 17 17 17 17 17 16 15 15 16 16 15 14 13 12 11 7 0 355 357 2 4 8 11 14 17 18 17 15 19 25 354 335 340 346 5 22 13 353 331 171 158 154 164 178 183 184 186 183 180 182 184
34 27 20 15 13 11 11 11 11 11 11 12 12 11 10 11 14 14 14 15 16 16 17 17 16 16 17 18 18 17 16 17 17 14 11 11 11 9 5 359 352 351 355 359 3 8 12 12 7 359 351 333 300 296 299 290 299 321 349 9 334 292 216 182 161 150 155 166 168 168 171 177 183 186
33 29 21 15 12 11 10 10 11 11 11 11 13 13 12 13 15 15 13 13 15 15 16 16 15 16 17 16 16 18 18 17 16 13 10 10 11 10 7 2 356 353 352 350 355 3 4 1 355 347 333 319 310 303 294 278 286 315 344 6 295 247 246 229 196 159 149 155 153 146 145 152 160 174
26 26 22 15 11 10 8 9 9 10 11 12 12 13 15 17 17 15 14 15 16 16 16 16 15 15 16 15 15 16 16 14 14 13 11 9 9 9 9 8 5 2 359 350 350 355 353 352 355 356 349 345 347 334 305 291 301 328 349 1 357 233 275 271 228 193 168 161 152 137 127 137 142 153
21 21 19 15 12 8 6 6 7 8 9 11 11 12 14 17 18 18 17 18 18 17 16 15 14 14 14 14 15 16 15 12 10 11 11 10 8 7 9 9 7 3 358 348 340 343 347 355 5 12 13 10 11 7 334 339 338 330 343 355 358 322 275 321 224 219 195 170 156 140 126 131 135 143
19 16 15 13 11 8 5 4 5 5 6 8 10 10 11 13 16 18 17 17 17 17 15 13 13 13 13 12 13 15 15 11 9 9 11 11 9 7 5 4 3 1 358 351 344 346 354 3 9 12 15 14 12 8 354 342 334 325 336 351 357 359 338 163 140 133 174 175 166 151 136 131 131 179
16 12 12 10 7 6 5 2 2 3 3 4 6 8 9 11 13 15 16 15 14 14 14 13 12 12 12 11 11 14 13 10 9 10 10 10 11 10 5 2 2 2 1 358 354 355 359 2 6 10 14 12 5 358 346 335 336 336 337 344 356 10 27 76 135 122 151 173 177 157 122 96 75 158
12 8 8 7 3 2 1 359 358 359 359 0 2 3 5 7 8 10 13 14 13 12 13 12 11 12 12 10 10 11 9 8 9 11 11 10 11 12 10 7 5 4 4 3 359 356 356 359 4 9 9 5 2 358 347 334 333 338 338 340 348 0 16 42 82 109 133 156 176 173 136 101 87 106